GW3329 Weather Reports


time (UTC)temp
F
wind
direction
speed
knots
gust
knots
rain 1hr
in
rain 24hr
in
rain mn
in
humidity
%
barometer
mb
20260503213833 62 51 0.9 3.5 0.00 0.00 0.00 69 1017.6
20260503213331 62 127 0.0 1.7 0.00 0.00 0.00 69 1017.6
20260503212828 62 96 0.0 2.6 0.00 0.00 0.00 69 1017.7
20260503212326 62 229 1.7 1.7 0.00 0.00 0.00 67 1017.6
20260503211823 62 80 0.0 0.9 0.00 0.00 0.00 69 1017.6
20260503211319 61 60 0.9 3.5 0.00 0.00 0.00 69 1017.6
20260503210819 60 98 0.9 0.9 0.00 0.00 0.00 71 1017.7
20260503210317 60 79 0.9 2.6 0.00 0.00 0.00 71 1017.8
20260503205812 60 273 0.9 2.6 0.00 0.00 0.00 71 1017.8
20260503205309 60 108 0.9 0.9 0.00 0.00 0.00 72 1017.8
20260503204805 60 137 0.9 0.9 0.00 0.00 0.00 73 1018.0
20260503204303 60 215 1.7 3.5 0.00 0.00 0.00 73 1017.8
20260503203800 60 215 0.0 5.2 0.00 0.00 0.00 75 1017.8
20260503203257 60 287 0.9 3.5 0.00 0.00 0.00 74 1017.8
20260503202754 60 35 0.9 1.7 0.00 0.00 0.00 75 1017.6
20260503202252 60 67 0.9 2.6 0.00 0.00 0.00 76 1017.7
20260503201750 60 265 1.7 2.6 0.00 0.00 0.00 76 1017.8
20260503201247 60 270 2.6 6.1 0.00 0.00 0.00 77 1017.8
20260503200744 60 294 5.2 7.0 0.00 0.00 0.00 77 1017.9
20260503200240 60 199 0.9 1.7 0.00 0.00 0.00 77 1017.9
20260503195737 60 241 3.5 5.2 0.00 0.00 0.00 77 1017.8
20260503195234 60 222 4.3 6.1 0.00 0.00 0.00 76 1018.0
20260503194732 61 157 0.0 1.7 0.00 0.00 0.00 76 1018.0
20260503194227 60 218 0.9 5.2 0.00 0.00 0.00 75 1018.0
20260503193723 60 305 0.9 3.5 0.00 0.00 0.00 76 1018.0
20260503193219 60 79 0.0 3.5 0.00 0.00 0.00 76 1017.9
20260503192715 60 167 1.7 2.6 0.00 0.00 0.00 76 1017.9
20260503192210 60 209 0.9 2.6 0.00 0.00 0.00 75 1018.1
20260503191708 61 301 3.5 6.1 0.00 0.00 0.00 75 1018.1
20260503191205 61 232 1.7 3.5 0.00 0.00 0.00 74 1018.0
20260503190701 62 349 1.7 1.7 0.00 0.00 0.00 70 1017.9
20260503190158 62 200 0.9 1.7 0.00 0.00 0.00 70 1017.9
20260503185655 62 356 0.9 1.7 0.00 0.00 0.00 71 1018.0
20260503185150 62 320 0.9 2.6 0.00 0.00 0.00 72 1018.1
20260503184645 62 74 0.0 1.7 0.00 0.00 0.00 72 1017.9
20260503184142 61 98 0.9 1.7 0.00 0.00 0.00 72 1018.2
20260503183638 62 148 0.0 0.9 0.00 0.00 0.00 71 1017.9
20260503183136 61 119 1.7 2.6 0.00 0.00 0.00 73 1018.1
20260503182634 60 132 0.0 1.7 0.00 0.00 0.00 75 1018.3
20260503182132 60 145 0.9 0.9 0.00 0.00 0.00 75 1018.2
20260503181629 60 113 0.9 2.6 0.00 0.00 0.00 76 1018.3
20260503181126 60 149 2.6 5.2 0.00 0.00 0.00 75 1018.3
20260503180622 60 239 1.7 1.7 0.00 0.00 0.00 76 1018.1
20260503180120 59 177 0.9 0.9 0.00 0.00 0.00 77 1018.4
20260503175617 59 70 0.0 0.0 0.00 0.00 0.00 78 1018.4
20260503175114 59 114 0.0 1.7 0.00 0.00 0.00 79 1018.3
20260503174611 59 110 0.9 1.7 0.00 0.00 0.00 79 1018.5
20260503174108 59 106 0.0 0.0 0.00 0.00 0.00 78 1018.4
20260503173603 59 73 0.0 0.9 0.00 0.00 0.00 79 1018.3
20260503173059 59 97 0.0 0.9 0.00 0.00 0.00 79 1018.5
20260503172551 59 93 0.0 0.9 0.00 0.00 0.00 79 1018.4
20260503172048 59 196 0.0 0.9 0.00 0.00 0.00 79 1018.3
20260503171544 58 181 0.0 0.9 0.00 0.00 0.00 80 1018.4
20260503171042 58 221 0.9 1.7 0.00 0.00 0.00 80 1018.5
20260503170538 57 185 0.0 0.9 0.00 0.00 0.00 81 1018.3
20260503150931 56 182 2.6 3.5 0.00 0.00 0.00 84 1018.0
20260503150427 56 149 0.0 0.0 0.00 0.00 0.00 85 1017.7
20260503131320 54 167 0.0 0.0 0.00 0.00 0.00 97 1016.4
20260503130818 54 169 0.0 0.0 0.00 0.00 0.00 97 1016.4
20260503130315 54 172 0.0 0.0 0.00 0.00 0.00 98 1016.4
20260503110709 55 181 0.0 0.0 0.00 0.00 0.00 98 1016.7
20260503110206 55 187 0.0 0.0 0.00 0.00 0.00 98 1016.8
20260503100132 55 128 0.0 0.0 0.00 0.00 0.00 98 1016.4
20260503081522 55 183 0.0 1.7 0.00 0.00 0.00 96 1017.2
20260503081019 55 171 0.0 1.7 0.00 0.00 0.00 96 1017.0
20260503080515 56 181 0.0 0.9 0.00 0.00 0.00 96 1017.0
20260503072449 56 165 0.0 1.7 0.00 0.00 0.00 96 1017.0
20260503071946 56 219 0.9 5.2 0.00 0.00 0.00 96 1016.7
20260503071443 56 200 0.9 0.9 0.00 0.00 0.00 95 1016.7
20260503070938 56 162 0.0 1.7 0.00 0.00 0.00 95 1016.8
20260503070436 56 177 0.0 0.0 0.00 0.00 0.00 95 1016.4
20260503054849 57 187 0.0 1.7 0.00 0.00 0.00 95 1016.7
20260503054345 56 246 0.9 1.7 0.00 0.00 0.00 95 1016.5
20260503053843 57 166 0.0 0.9 0.00 0.00 0.00 95 1016.8
20260503053341 57 168 0.0 0.9 0.00 0.00 0.00 95 1016.6
20260503052837 57 185 0.0 1.7 0.00 0.00 0.00 95 1016.5
20260503052334 57 170 0.0 0.9 0.00 0.00 0.00 95 1016.7
20260503051831 57 186 0.9 1.7 0.00 0.00 0.00 94 1016.8
20260503051327 57 161 0.0 2.6 0.00 0.00 0.00 94 1016.9
20260503050824 57 212 0.0 0.0 0.00 0.00 0.00 94 1016.5
20260503050320 57 142 0.0 0.0 0.00 0.00 0.00 95 1016.6
20260503045818 57 151 0.0 0.0 0.00 0.00 0.00 95 1016.4
20260503045316 57 131 0.0 0.0 0.00 0.00 0.00 95 1016.2
20260503044812 57 149 0.0 0.0 0.00 0.00 0.00 95 1016.2
20260503044309 57 155 0.0 0.0 0.00 0.00 0.00 95 1016.2
20260503043806 56 147 0.0 0.0 0.00 0.00 0.00 95 1016.3
20260503043303 57 167 0.0 0.9 0.00 0.00 0.00 95 1016.3
20260503042759 57 177 0.0 0.9 0.00 0.00 0.00 95 1016.0
20260503042256 57 165 0.0 0.0 0.00 0.00 0.00 95 1015.8
20260503041751 56 167 0.0 0.0 0.00 0.00 0.00 95 1015.7
20260503041249 56 148 0.0 0.0 0.00 0.00 0.00 95 1016.0
20260503040747 56 163 0.0 0.9 0.00 0.00 0.00 95 1015.8
20260503040244 56 173 0.0 0.0 0.00 0.00 0.00 95 1016.0
20260503035741 56 191 0.0 0.9 0.00 0.00 0.00 95 1015.9
20260503035238 56 167 0.0 1.7 0.00 0.00 0.00 95 1015.5
20260503034736 56 173 0.0 0.0 0.00 0.00 0.00 95 1015.6
20260503034232 56 164 0.0 0.0 0.00 0.00 0.00 95 1015.3
20260503033730 56 162 0.0 0.0 0.00 0.00 0.00 95 1015.1
20260503033227 56 166 0.0 1.7 0.00 0.00 0.00 94 1015.2
20260503032725 56 160 0.0 0.0 0.00 0.00 0.00 94 1015.3
20260503032224 56 180 0.0 0.0 0.00 0.00 0.00 94 1014.9
20260503031720 57 165 0.0 1.7 0.00 0.00 0.00 93 1015.1
20260503031219 57 188 0.0 1.7 0.00 0.00 0.00 93 1014.9
20260503030714 57 219 1.7 1.7 0.00 0.00 0.00 92 1015.0
20260503030211 57 129 0.9 2.6 0.00 0.00 0.00 92 1014.9
20260503025708 58 188 0.9 2.6 0.00 0.00 0.00 91 1014.8
20260503025206 58 121 0.0 0.9 0.00 0.00 0.00 90 1014.6
20260503024702 59 162 0.9 2.6 0.00 0.00 0.00 89 1014.9
20260503024200 59 163 0.0 0.9 0.00 0.00 0.00 88 1014.6
20260503023656 60 151 0.0 1.7 0.00 0.00 0.00 87 1014.8
20260503023153 60 218 2.6 3.5 0.00 0.00 0.00 86 1014.5
20260503022649 61 331 0.0 1.7 0.00 0.00 0.00 85 1014.5
20260503022148 61 121 0.0 0.0 0.00 0.00 0.00 84 1014.4
20260503021646 62 163 0.0 1.7 0.00 0.00 0.00 83 1014.4
20260503021142 62 263 0.9 1.7 0.00 0.00 0.00 82 1014.2
20260503020640 62 179 0.0 0.9 0.00 0.00 0.00 81 1014.3
20260503020137 63 153 0.0 0.0 0.00 0.00 0.00 80 1014.3
20260503015634 63 144 0.0 1.7 0.00 0.00 0.00 80 1014.4
20260503015131 64 126 0.0 0.9 0.00 0.00 0.00 79 1014.5
20260503014626 65 249 1.7 2.6 0.00 0.00 0.00 77 1014.1
20260503014125 66 179 1.7 1.7 0.00 0.00 0.00 75 1014.4
20260503013621 67 217 0.0 0.9 0.00 0.00 0.00 74 1014.2
20260503013119 67 168 0.0 1.7 0.00 0.00 0.00 73 1014.2
20260503012616 67 157 0.0 1.7 0.00 0.00 0.00 73 1014.2
20260503012113 67 83 0.0 3.5 0.00 0.00 0.00 74 1014.4
20260503011609 67 257 1.7 3.5 0.00 0.00 0.00 73 1014.3
20260503011107 67 247 2.6 3.5 0.00 0.00 0.00 72 1014.3
20260503010603 68 252 3.5 3.5 0.00 0.00 0.00 72 1014.4
20260503010101 69 218 1.7 1.7 0.00 0.00 0.00 71 1014.4
20260503005557 68 214 1.7 2.6 0.00 0.00 0.00 71 1014.3
20260503005055 69 242 0.0 1.7 0.00 0.00 0.00 70 1014.3
20260503004550 69 173 0.0 1.7 0.00 0.00 0.00 69 1014.4
20260503004049 70 38 0.9 3.5 0.00 0.00 0.00 69 1014.4
20260503003545 70 175 0.0 2.6 0.00 0.00 0.00 68 1014.3
20260503003043 71 170 0.0 2.6 0.00 0.00 0.00 67 1014.3
20260503002539 70 39 0.0 1.7 0.00 0.00 0.00 68 1014.3
20260503002036 70 197 0.0 1.7 0.00 0.00 0.00 68 1014.4
20260503001532 70 318 3.5 5.2 0.00 0.00 0.00 68 1014.5
20260503001031 69 248 2.6 5.2 0.00 0.00 0.00 69 1014.3
20260503000528 71 183 0.9 1.7 0.00 0.00 0.00 67 1014.4
20260503000024 70 237 2.6 3.5 0.00 0.00 0.00 67 1014.4
20260502235521 70 249 1.7 6.1 0.00 0.00 0.00 67 1014.7
20260502235019 71 220 1.7 2.6 0.00 0.00 0.00 66 1014.5
20260502234515 71 216 1.7 2.6 0.00 0.00 0.00 65 1014.6
20260502234012 72 42 0.9 3.5 0.00 0.00 0.00 65 1014.8
20260502233507 72 288 1.7 2.6 0.00 0.00 0.00 65 1014.7
20260502233004 72 42 0.9 1.7 0.00 0.00 0.00 65 1014.7
20260502232500 72 166 0.0 2.6 0.00 0.00 0.00 65 1014.6
20260502231957 70 349 0.9 1.7 0.00 0.00 0.00 66 1015.0
20260502231454 71 273 1.7 6.1 0.00 0.00 0.00 67 1015.1
20260502230952 70 193 2.6 3.5 0.00 0.00 0.00 68 1014.9
20260502230450 70 277 2.6 3.5 0.00 0.00 0.00 68 1015.0
20260502225948 70 182 1.7 3.5 0.00 0.00 0.00 68 1015.0
20260502225444 71 250 0.9 5.2 0.00 0.00 0.00 66 1015.1
20260502224941 70 218 0.9 2.6 0.00 0.00 0.00 67 1015.3
20260502224437 71 247 2.6 5.2 0.00 0.00 0.00 66 1015.2
20260502223934 70 196 0.9 7.0 0.00 0.00 0.00 67 1015.5
20260502223432 70 211 1.7 1.7 0.00 0.00 0.00 67 1015.6
20260502222930 71 264 0.9 2.6 0.00 0.00 0.00 66 1015.8
20260502222427 72 98 0.0 2.6 0.00 0.00 0.00 66 1015.9
20260502221922 71 205 0.9 2.6 0.00 0.00 0.00 67 1015.9
20260502221419 70 112 0.9 5.2 0.00 0.00 0.00 67 1016.0
20260502220916 71 232 2.6 5.2 0.00 0.00 0.00 66 1016.2
20260502220412 71 174 0.9 1.7 0.00 0.00 0.00 67 1016.2
20260502215909 71 328 5.2 7.0 0.00 0.00 0.00 67 1016.4
20260502215406 71 225 3.5 6.1 0.00 0.00 0.00 67 1016.1
20260502214903 71 340 0.0 5.2 0.00 0.00 0.00 68 1016.5
20260502214359 71 254 1.7 8.7 0.00 0.00 0.00 68 1016.2